TimeCST,TemperatureF,Dew PointF,Humidity,Sea Level PressureIn,VisibilityMPH,Wind Direction,Wind SpeedMPH,Gust SpeedMPH,PrecipitationIn,Events,Conditions,WindDirDegrees,DateUTC
12:14 AM,23.0,17.6,80,29.85,10.0,SW,11.5,-,N/A,,Clear,220,2013-01-07 06:14:00
12:34 AM,26.6,19.4,74,29.84,10.0,WSW,16.1,-,N/A,,Clear,240,2013-01-07 06:34:00
12:54 AM,28.4,21.2,74,29.85,10.0,WSW,13.8,-,N/A,,Clear,240,2013-01-07 06:54:00
1:14 AM,26.6,21.2,80,29.84,10.0,WSW,15.0,19.6,N/A,,Clear,240,2013-01-07 07:14:00
1:34 AM,28.4,21.2,74,29.83,10.0,WSW,15.0,-,N/A,,Clear,240,2013-01-07 07:34:00
1:54 AM,28.4,21.2,74,29.84,10.0,WSW,10.4,-,N/A,,Clear,240,2013-01-07 07:54:00
2:34 AM,28.4,21.2,74,29.84,10.0,WSW,10.4,-,N/A,,Clear,250,2013-01-07 08:34:00
2:54 AM,26.6,21.2,80,29.84,10.0,WSW,8.1,-,N/A,,Clear,240,2013-01-07 08:54:00
3:14 AM,26.6,21.2,80,29.83,10.0,WSW,10.4,-,N/A,,Clear,250,2013-01-07 09:14:00
3:34 AM,28.4,21.2,74,29.83,10.0,WSW,13.8,19.6,N/A,,Clear,250,2013-01-07 09:34:00
3:54 AM,26.6,21.2,80,29.84,10.0,West,11.5,-,N/A,,Clear,260,2013-01-07 09:54:00
4:14 AM,26.6,21.2,80,29.85,10.0,West,9.2,-,N/A,,Clear,260,2013-01-07 10:14:00
4:34 AM,26.6,21.2,80,29.84,10.0,WSW,8.1,-,N/A,,Clear,250,2013-01-07 10:34:00
4:54 AM,24.8,21.2,86,29.84,10.0,WSW,6.9,-,N/A,,Clear,250,2013-01-07 10:54:00
5:14 AM,26.6,21.2,80,29.85,10.0,West,6.9,-,N/A,,Clear,260,2013-01-07 11:14:00
5:34 AM,26.6,21.2,80,29.85,10.0,West,8.1,-,N/A,,Clear,260,2013-01-07 11:34:00
5:54 AM,24.8,21.2,86,29.86,10.0,West,6.9,-,N/A,,Clear,260,2013-01-07 11:54:00
6:14 AM,24.8,21.2,86,29.86,10.0,West,5.8,-,N/A,,Clear,260,2013-01-07 12:14:00
6:34 AM,24.8,21.2,86,29.85,10.0,WSW,6.9,-,N/A,,Clear,240,2013-01-07 12:34:00
6:54 AM,24.8,21.2,86,29.86,10.0,WSW,6.9,-,N/A,,Clear,250,2013-01-07 12:54:00
7:12 AM,24.8,21.2,86,29.86,10.0,WSW,8.1,-,N/A,,Clear,250,2013-01-07 13:12:00
7:34 AM,24.8,21.2,86,29.87,10.0,West,9.2,-,N/A,,Clear,260,2013-01-07 13:34:00
7:54 AM,24.8,21.2,86,29.87,10.0,WSW,8.1,-,N/A,,Clear,250,2013-01-07 13:54:00
8:14 AM,24.8,21.2,86,29.88,10.0,West,6.9,-,N/A,,Clear,260,2013-01-07 14:14:00
8:34 AM,26.6,21.2,80,29.88,10.0,West,9.2,-,N/A,,Clear,260,2013-01-07 14:34:00
8:54 AM,26.6,21.2,80,29.89,10.0,West,9.2,-,N/A,,Clear,260,2013-01-07 14:54:00
9:14 AM,28.4,21.2,74,29.90,10.0,West,9.2,-,N/A,,Clear,270,2013-01-07 15:14:00
9:34 AM,28.4,21.2,74,29.91,10.0,West,8.1,-,N/A,,Clear,260,2013-01-07 15:34:00
9:54 AM,28.4,21.2,74,29.91,10.0,West,6.9,-,N/A,,Clear,260,2013-01-07 15:54:00
10:14 AM,30.2,23.0,75,29.92,10.0,West,6.9,-,N/A,,Clear,260,2013-01-07 16:14:00
10:34 AM,32.0,23.0,69,29.93,10.0,West,6.9,-,N/A,,Clear,270,2013-01-07 16:34:00
10:54 AM,33.8,23.0,65,29.92,10.0,WNW,6.9,-,N/A,,Clear,290,2013-01-07 16:54:00
11:14 AM,35.6,23.0,60,29.92,10.0,WNW,6.9,-,N/A,,Clear,300,2013-01-07 17:14:00
11:34 AM,35.6,24.8,65,29.92,10.0,WNW,5.8,-,N/A,,Clear,290,2013-01-07 17:34:00
11:54 AM,35.6,24.8,65,29.91,10.0,WNW,8.1,-,N/A,,Clear,290,2013-01-07 17:54:00
12:14 PM,35.6,24.8,65,29.90,10.0,WNW,6.9,-,N/A,,Clear,300,2013-01-07 18:14:00
12:34 PM,35.6,24.8,65,29.90,10.0,WNW,6.9,-,N/A,,Clear,290,2013-01-07 18:34:00
12:54 PM,35.6,24.8,65,29.89,10.0,WNW,8.1,-,N/A,,Clear,290,2013-01-07 18:54:00
1:14 PM,35.6,26.6,70,29.89,10.0,WNW,6.9,-,N/A,,Clear,290,2013-01-07 19:14:00
1:54 PM,37.4,26.6,65,29.89,10.0,WNW,6.9,-,N/A,,Clear,290,2013-01-07 19:54:00
2:14 PM,37.4,26.6,65,29.89,10.0,WNW,6.9,-,N/A,,Clear,300,2013-01-07 20:14:00
2:34 PM,37.4,26.6,65,29.90,10.0,WNW,5.8,-,N/A,,Clear,290,2013-01-07 20:34:00
2:54 PM,37.4,26.6,65,29.90,10.0,WNW,5.8,-,N/A,,Clear,290,2013-01-07 20:54:00
3:14 PM,37.4,26.6,65,29.91,10.0,WNW,9.2,-,N/A,,Clear,290,2013-01-07 21:14:00
3:34 PM,35.6,26.6,70,29.91,10.0,WNW,9.2,-,N/A,,Clear,300,2013-01-07 21:34:00
3:54 PM,35.6,26.6,70,29.92,10.0,WNW,8.1,-,N/A,,Clear,290,2013-01-07 21:54:00
4:14 PM,35.6,26.6,70,29.93,10.0,WNW,5.8,-,N/A,,Clear,300,2013-01-07 22:14:00
4:34 PM,35.6,26.6,70,29.93,10.0,West,3.5,-,N/A,,Clear,280,2013-01-07 22:34:00
5:14 PM,33.8,24.8,70,29.93,10.0,NW,4.6,-,N/A,,Clear,310,2013-01-07 23:14:00
5:34 PM,33.8,24.8,70,29.93,10.0,NNW,4.6,-,N/A,,Clear,330,2013-01-07 23:34:00
5:54 PM,33.8,24.8,70,29.93,10.0,Calm,Calm,-,N/A,,Clear,0,2013-01-07 23:54:00
6:14 PM,30.2,23.0,75,29.93,10.0,SW,6.9,-,N/A,,Clear,230,2013-01-08 00:14:00
6:34 PM,30.2,24.8,80,29.94,10.0,West,3.5,-,N/A,,Clear,270,2013-01-08 00:34:00
6:54 PM,28.4,23.0,80,29.94,10.0,West,4.6,-,N/A,,Clear,270,2013-01-08 00:54:00
7:14 PM,30.2,23.0,75,29.94,10.0,West,4.6,-,N/A,,Clear,280,2013-01-08 01:14:00
7:34 PM,28.4,23.0,80,29.94,10.0,West,4.6,-,N/A,,Scattered Clouds,260,2013-01-08 01:34:00
7:54 PM,28.4,23.0,80,29.93,10.0,WSW,5.8,-,N/A,,Clear,250,2013-01-08 01:54:00
8:14 PM,28.4,23.0,80,29.94,10.0,West,3.5,-,N/A,,Clear,260,2013-01-08 02:14:00
8:34 PM,28.4,23.0,80,29.95,10.0,Calm,Calm,-,N/A,,Clear,0,2013-01-08 02:34:00
8:54 PM,26.6,21.2,80,29.94,10.0,West,3.5,-,N/A,,Clear,270,2013-01-08 02:54:00
9:14 PM,28.4,21.2,74,29.95,10.0,West,3.5,-,N/A,,Scattered Clouds,260,2013-01-08 03:14:00
9:35 PM,28.4,21.2,74,29.95,10.0,West,3.5,-,N/A,,Overcast,270,2013-01-08 03:35:00
9:54 PM,28.4,23.0,80,29.95,10.0,West,3.5,-,N/A,,Overcast,280,2013-01-08 03:54:00
10:14 PM,28.4,21.2,74,29.95,10.0,West,4.6,-,N/A,,Overcast,270,2013-01-08 04:14:00
10:34 PM,28.4,21.2,74,29.96,10.0,Calm,Calm,-,N/A,,Overcast,0,2013-01-08 04:34:00
10:54 PM,28.4,21.2,74,29.96,10.0,Calm,Calm,-,N/A,,Overcast,0,2013-01-08 04:54:00
11:14 PM,26.6,21.2,80,29.96,10.0,Calm,Calm,-,N/A,,Overcast,0,2013-01-08 05:14:00
11:34 PM,24.8,21.2,86,29.96,10.0,Calm,Calm,-,N/A,,Overcast,0,2013-01-08 05:34:00
11:54 PM,24.8,19.4,80,29.95,10.0,Calm,Calm,-,N/A,,Mostly Cloudy,0,2013-01-08 05:54:00